[[{"header":{"parameterUnit":"m.s-1","parameterCategory":1,"la1":30.2991,"la2":30.254,"lo1":-89.0895,"lo2":-89.0444,"dy":0.0017,"dx":0.0017,"nx":28,"ny":28,"refTime":"2025-07-28T21:00:00:Z","depth":0,"parameterNumber":2,"parameterNumberName":"U-component_of_WINDS"},"data":[0,0,0,0,0,0,0,0,0,0,0,0,0,0,0,0,0,0,0,0,0,0,0,0,0,0,0,0,0,0,0,0,0,0,0,0,0,0,0,0,0,0,0,0,0,0,0,0,0,0,0,0,0,0,0,0,0,0,1.1493,1.1493,0,1.1472,1.1472,1.1472,1.143,1.1429,1.1428,1.1428,1.1408,1.1408,1.1408,0,0,0,0,0,0,0,0,0,0,0,0,0,1.15,1.15,1.1493,1.1493,1.1493,1.1472,1.1472,1.1472,1.143,1.1429,1.1428,1.1427,1.1408,1.1408,1.1408,0,0,0,0,0,0,0,0,0,0,0,0,0,1.149,1.15,1.1493,1.1469,1.1467,1.1472,1.1472,1.1471,1.143,1.1429,1.1428,1.1427,1.1408,1.1408,1.1409,1.1436,0,0,1.141,1.141,0,0,0,0,0,0,0,0,1.149,1.149,1.1473,1.1471,1.1468,1.1452,1.1467,1.146,1.1431,1.1444,1.1428,1.1426,1.1424,1.1423,1.1422,1.1435,1.1434,1.141,1.141,1.141,1.141,0,0,0,0,0,0,0,1.1491,1.149,1.1485,1.1473,1.147,1.1461,1.1458,1.1465,1.1441,1.1443,1.144,1.1438,1.1422,1.1421,1.1421,1.1434,1.141,1.141,1.141,1.141,1.1468,1.1469,0,0,0,0,0,0,1.1495,1.1491,1.1486,1.1484,1.1477,1.1462,1.1458,1.1459,1.1441,1.1437,1.1439,1.1436,1.1421,1.1421,1.142,1.1451,1.141,1.141,1.1411,1.1467,1.1468,1.147,0,0,0,0,0,0,1.1495,1.1495,1.1486,1.1487,1.1485,1.1463,1.1464,1.1459,1.1458,1.1438,1.1434,1.1442,1.142,1.142,1.1432,1.1449,1.1411,1.1411,1.1465,1.1467,1.1469,1.1512,0,0,0,0,0,0,1.1496,1.1495,1.1505,1.1487,1.1485,1.1498,1.1465,1.146,1.1459,1.1455,1.144,1.1437,1.1419,1.1432,1.1432,1.1449,1.1411,1.1464,1.1466,1.1469,1.1509,1.1515,1.152,0,0,0,0,0,1.1496,1.1518,1.1505,1.1505,1.1496,1.1499,1.1498,1.1477,1.146,1.147,1.1457,1.1437,1.1448,1.1433,1.1434,1.1451,1.1462,1.1466,1.1468,1.1506,1.1514,1.152,0,0,0,0,0,0,1.1538,1.1515,1.1501,1.1518,1.1511,1.1492,1.1503,1.1486,1.1484,1.148,1.1455,1.1453,1.1468,1.1461,1.1446,1.1476,1.1452,1.1455,1.148,1.1488,1.1493,1.1494,1.1411,0,0,0,0,0,1.1549,1.1553,1.1533,1.155,1.1547,1.1526,1.1526,1.1511,1.1503,1.15,1.1488,1.1482,1.1483,1.1485,1.1486,1.1508,1.1504,1.152,1.1526,1.1531,1.1534,1.1545,1.1552,1.148,1.148,1.148,0,0,1.1573,1.156,1.1564,1.1558,1.155,1.1555,1.1524,1.153,1.1534,1.1501,1.1512,1.1503,1.1494,1.1512,1.1519,1.1506,1.1553,1.1534,1.1538,1.1539,1.1549,1.1556,1.1562,1.1482,1.1481,1.1481,0,0,1.1617,1.1608,1.1621,1.1615,1.1604,1.159,1.1593,1.1578,1.157,1.1581,1.1557,1.1561,1.1565,1.1559,1.1557,1.1601,1.1583,1.1602,1.1632,1.1644,1.1649,1.1654,1.167,1.1676,1.1605,1.1605,1.1606,0,1.1647,1.1653,1.163,1.1638,1.1636,1.1607,1.162,1.1615,1.1606,1.1606,1.1591,1.1595,1.1587,1.1603,1.1614,1.1613,1.1617,1.1603,1.165,1.1655,1.1659,1.1674,1.168,1.1608,1.1608,1.1607,1.1607,0,1.1691,1.1695,1.1707,1.1698,1.1698,1.1708,1.1688,1.1691,1.1676,1.1664,1.1675,1.1665,1.1663,1.1666,1.1651,1.168,1.1672,1.1655,1.1629,1.1669,1.1682,1.1688,1.1611,1.161,1.161,1.1609,0,0,1.176,1.1739,1.1744,1.1739,1.1726,1.1729,1.1739,1.1737,1.1739,1.1734,1.1742,1.1746,1.173,1.1728,1.1713,1.1723,1.1759,1.1704,1.1704,1.1714,1.1789,1.1802,1.1809,1.1747,1.1748,1.1748,1.179,0,1.1802,1.1816,1.1796,1.1816,1.182,1.1793,1.1801,1.1795,1.1784,1.1787,1.1775,1.1778,1.1757,1.1755,1.1764,1.1752,1.1773,1.1749,1.1754,1.1754,1.1756,1.1816,1.1829,1.1869,1.1795,1.1796,1.1797,0,1.1851,1.1848,1.1867,1.1853,1.1854,1.1862,1.1859,1.1861,1.1854,1.1845,1.1843,1.1825,1.1835,1.1811,1.1824,1.1808,1.1809,1.1804,1.1805,1.1804,1.1777,1.1816,1.1881,1.1887,1.1805,1.1804,1.1803,0,1.19,1.19,1.1912,1.1909,1.1893,1.1899,1.1893,1.1884,1.1884,1.1881,1.1881,1.188,1.188,1.188,1.1862,1.1846,1.1878,1.1852,1.1871,1.1872,1.1878,1.1878,1.1944,1.188,1.188,1.188,1.188,0,1.1947,1.196,1.1934,1.1941,1.1955,1.1933,1.1948,1.1939,1.1931,1.1937,1.1914,1.192,1.1897,1.19,1.1887,1.19,1.19,1.1894,1.189,1.1895,1.1896,1.1895,1.1892,1.1881,1.1881,1.1881,1.188,0,1.2003,1.1986,1.1997,1.1981,1.1977,1.1988,1.1975,1.1981,1.197,1.1977,1.1977,1.1959,1.1962,1.1945,1.1946,1.1937,1.1956,1.1948,1.1959,1.1956,1.1976,1.1974,1.2043,1.2051,1.1983,1.1983,1.1984,0,1.2034,1.2044,1.2029,1.2031,1.2025,1.2029,1.2028,1.2008,1.2009,1.2001,1.2009,1.201,1.201,1.2016,1.2003,1.2004,1.1995,1.2019,1.1995,1.2,1.1995,1.1995,1.1995,1.2024,1.2025,1.2026,1.2026,0,1.2092,1.2083,1.2083,1.2081,1.2081,1.2079,1.2074,1.2078,1.2055,1.2058,1.206,1.206,1.2061,1.2062,1.206,1.2054,1.2037,1.2034,1.2039,1.2044,1.205,1.2047,1.1972,1.2033,1.2032,1.2032,1.2031,1.2031,1.2136,1.2143,1.2134,1.2135,1.213,1.2127,1.2132,1.2121,1.2123,1.2121,1.2109,1.2114,1.2107,1.2102,1.2098,1.2102,1.2091,1.2097,1.2099,1.21,1.2104,1.205,1.2102,1.2102,1.2102,1.2101,1.2101,0,1.2192,1.2184,1.2186,1.2181,1.2182,1.2165,1.216,1.2163,1.2167,1.2162,1.2162,1.2166,1.2167,1.2155,1.2155,1.2161,1.2153,1.2162,1.2161,1.216,1.2114,1.211,1.2168,1.2168,1.2168,1.2168,1.2168,1.2168,1.2221,1.2232,1.2222,1.2231,1.2224,1.2228,1.2226,1.2224,1.2219,1.2224,1.2225,1.2217,1.2209,1.2209,1.221,1.2206,1.2207,1.2219,1.2212,1.217,1.2163,1.2157,1.2153,1.2219,1.2219,1.2258,1.2258,1.2258]},{"header":{"parameterUnit":"m.s-1","parameterCategory":1,"la1":30.2991,"la2":30.254,"lo1":-89.0895,"lo2":-89.0444,"dy":0.0017,"dx":0.0017,"nx":28,"ny":28,"refTime":"2025-07-28T21:00:00:Z","depth":0,"parameterNumber":3,"parameterNumberName":"V-component_of_WINDS"},"data":[0,0,0,0,0,0,0,0,0,0,0,0,0,0,0,0,0,0,0,0,0,0,0,0,0,0,0,0,0,0,0,0,0,0,0,0,0,0,0,0,0,0,0,0,0,0,0,0,0,0,0,0,0,0,0,0,0,0,0.0323,0.0323,0,0.0289,0.0288,0.0288,0.0243,0.0242,0.0242,0.0241,0.0208,0.0208,0.0208,0,0,0,0,0,0,0,0,0,0,0,0,0,0.0353,0.0353,0.0323,0.0323,0.0322,0.0289,0.0288,0.0288,0.0243,0.0242,0.0241,0.0241,0.0209,0.0208,0.0208,0,0,0,0,0,0,0,0,0,0,0,0,0,0.0332,0.0353,0.0323,0.0296,0.0293,0.0289,0.0288,0.0288,0.0243,0.0242,0.0241,0.024,0.0209,0.0208,0.0208,0.0229,0,0,0.0207,0.0207,0,0,0,0,0,0,0,0,0.0333,0.0331,0.03,0.0298,0.0295,0.0269,0.0287,0.0268,0.0244,0.0262,0.0241,0.024,0.023,0.0228,0.0224,0.0227,0.0226,0.0207,0.0207,0.0207,0.0207,0,0,0,0,0,0,0,0.0334,0.0332,0.031,0.03,0.0297,0.0286,0.0282,0.0283,0.0253,0.0261,0.0257,0.0254,0.0228,0.0224,0.0223,0.0225,0.0207,0.0207,0.0207,0.0207,0.0243,0.0244,0,0,0,0,0,0,0.034,0.0333,0.0311,0.0309,0.0311,0.0287,0.0282,0.0278,0.0253,0.0248,0.0255,0.0252,0.0225,0.0223,0.0221,0.0243,0.0207,0.0207,0.0207,0.0242,0.0244,0.0245,0,0,0,0,0,0,0.034,0.0338,0.0312,0.032,0.0316,0.0287,0.0284,0.0278,0.0274,0.0248,0.0243,0.0256,0.0224,0.0222,0.0227,0.0241,0.0207,0.0206,0.0241,0.0243,0.0244,0.0287,0,0,0,0,0,0,0.0341,0.0339,0.0345,0.032,0.0316,0.0318,0.0285,0.0279,0.0274,0.027,0.0248,0.0243,0.0223,0.0227,0.0227,0.024,0.0206,0.0239,0.0242,0.0244,0.0284,0.029,0.0295,0,0,0,0,0,0.0343,0.036,0.0346,0.0344,0.0324,0.0318,0.0316,0.0291,0.0275,0.0282,0.0265,0.0244,0.024,0.0228,0.0227,0.0241,0.0238,0.0241,0.0243,0.0281,0.0289,0.0294,0,0,0,0,0,0,0.0388,0.0356,0.034,0.035,0.0337,0.0311,0.0319,0.03,0.0292,0.0289,0.0259,0.0255,0.0264,0.0253,0.024,0.0259,0.0236,0.0238,0.0265,0.0272,0.0277,0.0279,0.0206,0,0,0,0,0,0.0399,0.0397,0.0369,0.038,0.0374,0.0348,0.0345,0.0327,0.0313,0.0308,0.0291,0.0279,0.0275,0.0273,0.0268,0.0283,0.0277,0.0291,0.0297,0.0301,0.0303,0.031,0.0315,0.0253,0.0253,0.0253,0,0,0.0422,0.0404,0.0404,0.0388,0.0376,0.0375,0.0344,0.0344,0.0343,0.0308,0.0311,0.0299,0.0284,0.0294,0.0297,0.0285,0.032,0.0304,0.0308,0.0308,0.0313,0.0319,0.0324,0.0255,0.0255,0.0254,0,0,0.0462,0.0449,0.0455,0.0444,0.0426,0.0409,0.041,0.0387,0.0377,0.038,0.0354,0.0353,0.0346,0.0336,0.0331,0.0367,0.0348,0.0367,0.0394,0.0401,0.0406,0.041,0.0422,0.0427,0.0369,0.0369,0.0369,0,0.0493,0.0489,0.0462,0.0463,0.0457,0.0425,0.0432,0.0423,0.0405,0.0401,0.0388,0.0379,0.0367,0.0373,0.0382,0.0379,0.038,0.0369,0.0407,0.0411,0.0415,0.0426,0.0431,0.0372,0.0372,0.0371,0.0371,0,0.0527,0.0525,0.0533,0.0515,0.051,0.0514,0.0489,0.0487,0.047,0.0454,0.0457,0.0441,0.0432,0.0433,0.0416,0.0437,0.043,0.0412,0.0388,0.0423,0.0433,0.0438,0.0375,0.0374,0.0374,0.0373,0,0,0.0594,0.0561,0.0564,0.0555,0.0533,0.0532,0.0535,0.0525,0.0524,0.0513,0.0515,0.051,0.0494,0.0487,0.047,0.0476,0.0505,0.0457,0.0456,0.0466,0.0526,0.0538,0.0544,0.0492,0.0493,0.0493,0.0527,0,0.063,0.0632,0.0608,0.0617,0.0615,0.0584,0.0587,0.0575,0.056,0.0557,0.0541,0.0538,0.0517,0.0512,0.0517,0.05,0.0516,0.0498,0.0494,0.0494,0.0497,0.0549,0.0562,0.0594,0.0531,0.0531,0.0532,0,0.0671,0.0661,0.067,0.0647,0.0645,0.0648,0.0636,0.0633,0.0619,0.0608,0.06,0.058,0.0582,0.056,0.0563,0.0551,0.0548,0.054,0.0541,0.0538,0.0514,0.0547,0.0604,0.0608,0.0538,0.0538,0.0537,0,0.0718,0.0707,0.071,0.0704,0.0677,0.068,0.0669,0.0653,0.0649,0.064,0.0636,0.0628,0.0623,0.0618,0.0596,0.0582,0.0601,0.0577,0.0592,0.0592,0.0596,0.0596,0.0652,0.0596,0.0596,0.0596,0.0596,0,0.0759,0.0766,0.0731,0.0733,0.0739,0.0712,0.0719,0.0706,0.0692,0.0691,0.0665,0.0665,0.0637,0.0634,0.0618,0.0622,0.0621,0.0612,0.0607,0.0613,0.0614,0.061,0.0607,0.0597,0.0597,0.0597,0.0597,0,0.0812,0.0789,0.079,0.0765,0.0759,0.0765,0.0743,0.0745,0.0729,0.0728,0.0727,0.0702,0.0697,0.0675,0.0666,0.0654,0.0664,0.0656,0.0669,0.0665,0.0681,0.0679,0.0735,0.0741,0.0683,0.0683,0.0684,0,0.0839,0.0843,0.0818,0.0815,0.0805,0.0801,0.0796,0.077,0.0766,0.0749,0.0753,0.0746,0.0739,0.0733,0.0715,0.0707,0.0698,0.0718,0.0696,0.0702,0.0697,0.0696,0.0696,0.0722,0.0723,0.0723,0.0724,0,0.0889,0.0878,0.0871,0.086,0.0854,0.0845,0.0834,0.0833,0.0805,0.0802,0.0796,0.079,0.078,0.0774,0.0763,0.0753,0.0734,0.0731,0.0734,0.0739,0.0746,0.0742,0.068,0.0729,0.0729,0.0728,0.0728,0.0728,0.0929,0.0931,0.0913,0.0906,0.0895,0.0886,0.0885,0.0869,0.0863,0.0852,0.0838,0.0834,0.0819,0.0803,0.0795,0.0792,0.0781,0.0785,0.0786,0.0787,0.079,0.0748,0.079,0.079,0.079,0.079,0.0789,0,0.0977,0.0964,0.0958,0.0943,0.0938,0.092,0.0907,0.0904,0.09,0.0888,0.0881,0.0875,0.0868,0.085,0.0841,0.0843,0.0834,0.0841,0.084,0.0838,0.0801,0.0798,0.0849,0.0849,0.0849,0.0849,0.0849,0.0849,0.1001,0.1003,0.0989,0.0985,0.0973,0.0968,0.0962,0.0953,0.0943,0.0936,0.093,0.0918,0.0903,0.0894,0.0887,0.0882,0.088,0.089,0.0882,0.0847,0.0841,0.0836,0.0833,0.089,0.089,0.0919,0.092,0.092]}]]